www.pogodaiklimat.ru

Погода и климат >> Архив погоды >> Россия >> Хакасия >> Неожиданный


АРХИВ ПОГОДЫ в Неожиданном

Время (UTC), дата Ветер
(напр.,м/с)
 
Видим.   Явления Облачность Т
(С)
Тd
(С)
f
(%)
Тe
(С)
Тes
(С)
Комфортность P
(гПа)
Po
(гПа)
Тmin
(С)
Tmax
(С)
R
(мм)
R24
(мм)
S
(см)
00 14.03 штиль 0 н/о 4/0
[Ci fib]
-8.3 -9.8 89 -9 -9 1032.0 964.8 -8.5 66
03 14.03 штиль 0 50 км 4/0
[Ac trans]
-4.2 -6.5 84 -5 -2 1033.0 966.7
06 14.03 ЮЗ 3 50 км 8/0
[Ci fib]
+6.8 -8.3 33 +5 +6 1028.8 965.3
09 14.03 ЮЗ 2 50 км 8/0
[Ac cast Ci sp]
+8.5 -11.4 23 +8 +9 1028.5 965.3
12 14.03 Ю 2 50 км 9/0
[Ac trans Ci sp]
+5.0 -9.3 35 +3 +3 1027.8 964.1 +9.8
15 14.03 штиль 0 н/о 10/0
[Ac trans Cs]
-1.7 -6.8 68 -2 -2 1030.9 965.3
18 14.03 штиль 0 н/о 10/0
[Ac trans Cs]
-4.2 -7.1 80 -5 -5 1030.1 964.0
21 14.03 штиль 0 н/о 10/0
[Ci fib]
-7.4 -8.8 90 -8 -8 1029.6 962.7
00 15.03 штиль 0 н/о ясно -10.2 -10.8 95 -11 -11 1028.4 960.9 -10.2 66
03 15.03 штиль 0 50 км ясно -3.8 -8.6 69 -5 0 1027.1 961.3 -11.0
06 15.03 штиль 0 50 км ясно +6.7 -8.0 34 +7 +17 опасность
простуды
1021.8 958.7
09 15.03 ЮЗ 1 50 км ясно +14.8 -8.6 19 +16 +20 1017.1 956.0
12 15.03 ЮЗ 1 50 км ясно +4.8 -7.7 40 +4 +4 1017.2 954.2 +15.0
15 15.03 штиль 0 н/о ясно -2.8 -7.0 73 -4 -4 1021.2 956.0
18 15.03 штиль 0 н/о ясно -5.7 -7.5 87 -7 -7 1021.9 956.0
21 15.03 штиль 0 н/о ясно -8.6 -9.7 92 -9 -9 1022.7 956.0
00 16.03 штиль 0 н/о 4/0
[Ci sp]
-9.8 -11.0 91 -10 -10 1021.3 954.3 -10.2 64
03 16.03 штиль 0 50 км 10/0
[Cs]
-5.4 -7.7 84 -6 -6 1020.5 954.7
06 16.03 С 1 50 км 8/0
[Ci fib]
+5.1 -6.7 42 +5 +7 1015.1 952.0
09 16.03 З 1 50 км 10/3 1000 м
[Cb cap Ac As]
+6.7 -8.4 33 +7 +7 1013.3 950.7
12 16.03 Ю 1 20 км слаб. ливневой дождь 10/10 1050 м
[Cb cap]
+2.1 -1.0 80 +1 +1 1016.4 952.5 +8.8 0.0
15 16.03 ЮЗ 2 н/о в посл. час ливневой снег 8/8 1050 м
[Cb cap]
-0.4 -4.2 75 -4 -4 1018.6 954.1
18 16.03 ЮЗ 3 н/о {ливн. осадки} 3/3 1000 м
[Sc]
-2.6 -8.3 65 -7 -7 1021.2 956.0
21 16.03 З 2 н/о слаб. ливневой снег 8/8 1020 м
[Cb cap]
-4.3 -9.4 68 -8 -8 1020.4 954.9
00 17.03 Ю 1 н/о слаб. ливневой снег 6/6 1020 м
[Cb cap]
-6.2 -10.2 73 -8 -8 1021.4 955.4 -6.4 0.7 64
03 17.03 ЮЗ 4 50 км в посл. час ливневой снег 8/3 1000 м
[Sc Ci fib]
-5.1 -11.0 63 -11 -10 1021.3 955.7 -6.6
06 17.03 ЮЗ 4 50 км {ливн. осадки} 10/10 1020 м
[Cb cap]
-3.8 -12.5 51 -9 -9 1020.6 955.1
09 17.03 Ю 3 50 км 10/10 1020 м
[Sc]
-4.0 -10.8 59 -9 -9 1021.5 956.0
12 17.03 Ю 2 50 км 10/10 1020 м
[Sc]
-5.1 -11.0 63 -9 -9 1021.8 956.0 -3.4 0.0
15 17.03 Ю 1 н/о {ливн. осадки} 10/6 1020 м
[Cb cap Cc]
-6.5 -9.3 80 -9 -9 1022.8 956.6
18 17.03 ЮЗ 1 н/о {ливн. осадки} 10/3 1000 м
[Sc Cc]
-7.2 -10.5 77 -9 -9 1026.6 960.0
21 17.03 ЮЗ 1 н/о 4/0
[Cc]
-9.5 -12.5 79 -12 -12 1028.6 961.3
00 18.03 штиль 0 н/о 4/0
[Ac lent Ci fib]
-13.4 -15.4 85 -13 -13 1032.0 963.3 -13.4 0.3 64
03 18.03 С 1 50 км 3/3 1000 м
[Sc Ci fib]
-8.7 -12.5 74 -11 -7 1032.7 965.3 -14.5
06 18.03 Ю 1 50 км 8/8 1020 м
[Cb cap]
-5.1 -12.9 54 -7 -4 1033.3 966.7
09 18.03 Ю 3 50 км 4/4 1000 м
[Sc]
-2.1 -13.3 42 -6 -4 1032.5 966.7
12 18.03 Ю 1 50 км 3/3 1000 м
[Sc Ci fib]
-5.3 -14.5 48 -7 -7 1033.8 966.9 -2.1
15 18.03 штиль 0 н/о ясно -11.8 -15.3 75 -12 -12 1037.8 969.3
18 18.03 штиль 0 н/о ясно -15.9 -17.2 90 -16 -16 1038.9 969.3
21 18.03 штиль 0 н/о ясно -18.8 -20.7 85 -19 -19 1039.8 969.3
00 19.03 штиль 0 н/о 1/0
[Ci fib]
-21.0 -22.9 85 -21 -21 1038.7 968.0 -21.0 64
03 19.03 штиль 0 50 км 2 балла -13.8 -17.3 75 -14 -10 1038.4 969.3 -21.3
06 19.03 В 1 50 км 2 балла -3.1 -14.8 40 -5 +3 1032.8 966.7
09 19.03 СВ 1 50 км 10 баллов +0.3 -14.8 31 -1 -1 1029.0 964.0
12 19.03 З 3 50 км 10/0
[Cs]
-1.6 -14.1 38 -6 -6 1028.7 963.1 +1.3
15 19.03 штиль 0 н/о 10 баллов -4.8 -12.4 55 -5 -5 1031.7 965.3
18 19.03 ЮЗ 1 н/о 10 баллов -7.2 -12.5 66 -9 -9 1032.3 965.3
21 19.03 штиль 0 н/о 10 баллов -10.8 -13.6 80 -11 -11 1034.8 966.7
00 20.03 штиль 0 н/о 10/0
[Ci sp]
-10.4 -13.2 80 -11 -11 1034.5 966.6 -10.8 63
03 20.03 штиль 0 50 км 7 баллов -6.4 -11.0 70 -7 -5 1035.0 968.0 -11.7
06 20.03 Ю 2 50 км 10 баллов -1.3 -11.4 46 -4 -4 1033.7 968.0
09 20.03 З 2 50 км 7 баллов +1.3 -10.2 42 -1 0 1033.0 968.0
12 20.03 Ю 1 50 км ясно -1.2 -12.5 42 -2 -2 1032.7 966.9 +1.7
15 20.03 Ю 1 н/о ясно -7.9 -12.6 69 -10 -10 1035.4 968.0
18 20.03 штиль 0 н/о ясно -12.2 -14.2 85 -12 -12 1037.9 969.3

 

Местоположение метеостанции Неожиданный (Хакасия, Россия): широта 53.28 долгота 89.07 высота над уровнем моря 526 м.

В архиве по умолчанию представлена погода в Неожиданном за последнюю неделю. Архивные данные за месяц целиком и за предыдущие месяцы, начиная с января 2011 года, Вы можете получить, выбрав интересующий диапазон дат из раскрывающегося списка и нажав кнопку "Ввод!".


*Определитесь, кто Вы:
робот инопланетянин человек

Внимание! Время в таблицах - всемирное. Для получения местного времени необходимо прибавить поправку, которая равна 7 ч.

Смотрите также архив погоды в соседних городах и на ближайших метеорологических станциях:

Погода в Усть-Кабырзе (Кемеровская область, Россия) (66 км)
Погода в Междуреченске (Кемеровская область, Россия) (71 км)
Погода в Мантуре (Хакасия, Россия) (75 км)
Погода в Таштыпе (Хакасия, Россия) (76 км)
Погода в Аскизе (Хакасия, Россия) (95 км)
Погода в Таштаголе (Кемеровская область, Россия) (98 км)
Погода в Уйбате (Хакасия, Россия) (99 км)
Погода в Коммунаре (Хакасия, Россия) (118 км)
Погода в Кузедеево (Кемеровская область, Россия) (126 км)
Погода в Бее (Хакасия, Россия) (126 км)

Пояснения к столбцам:

Ветер - указаны скорость ветра в м/с - средняя за 10 мин, порывы в срок и между сроками (в фигурных скобках) и направление, откуда дует ветер: С - северный, СВ - северо-восточный, В - восточный, ЮВ - юго-восточный, Ю - южный, ЮЗ - юго-западный, З - западный, СЗ - северо-западный.
Видимость - горизонтальная дальность видимости в метрах или километрах. При видимости от 1 до 10 км при отсутствии осадков обычно наблюдается дымка, при ухудшении видимости до 1 км и менее - туман. В сухую погоду видимость может ухудшаться дымом, пылью или мглою.
Явления - указаны атмосферные явления, наблюдавшиеся в срок или в последний час перед сроком; фигурными скобками обозначены явления, наблюдавшиеся между сроками (за 1-3 часа до срока); квадратными скобками обозначены град или гололедные отложения с указанием их диаметра в мм.
Облачность - указаны через наклонную черту общая и нижняя облачность в баллах и высота нижней границы облаков в метрах; квадратными скобками обозначены формы облаков: Ci - перистые, Cs - перисто-слоистые, Cc - перисто-кучевые, Ac - высококучевые, As - высокослоистые, Sc - слоисто-кучевые, Ns - слоисто-дождевые, Cu - кучевые, Cb - кучево-дождевые. Подробнее классификацию облаков см. в Атласе облаков (PDF).
T - Температура воздуха - температура, измеренная на высоте 2 м над землей.
Td - Температура точки росы - температура, при понижении до которой содержащийся в воздухе водяной пар достигнет насыщения.
f - Относительная влажность воздуха - влажноcть воздуха, измеренная на высоте 2 м над землей.
Te - Эффективная температура - температура, которую ощущает одетый по сезону человек в тени. Характеристика душности погоды. При расчете учитывается влияние влажности воздуха и скорости ветра на теплоощущения человека.
Tes - Эффективная температура на солнце - температура, которую ощущает человек, с поправкой на солнечный нагрев. Характеристика знойности погоды. Зависит от высоты солнца над горизонтом, облачности и скорости ветра. Ночью, в пасмурную погоду, а также при ветре 12 м/с и более поправка равна нулю.
P - Атмосферное давление - приведенное к уровню моря атмосферное давление.
Po - Атмосферное давление - измеренное на уровне метеостанции атмосферное давление.
Tmin - Минимальная температура - минимум температуры воздуха на высоте 2 м над землей.
Tmax - Максимальная температура - максимум температуры воздуха на высоте 2 м над землей.
R - Количество осадков - Количество выпавших осадков за период времени, мм. При наведении курсора мыши на число - период времени, за который выпало указанное количество осадков.
R24 - Количество осадков - Количество выпавших осадков за 24 часа, мм.
S - Снежный покров - Высота снежного покрова, см. При наведении курсора мыши на число - состояние снежного покрова и степень покрытия местности в баллах.